SCP
0 0 0 0 0 0 0 0 0 0 0 0 0 0 0 0 0 0 0 0 0 0 0 0 0 0 0 1 1 1 1 1 1 1 1 1 1 0 1 1 1 1 1 1
0 0 0 0 0 0 0 0 0 0 0 0 0 0 0 0 0 0 0 0 0 0 0 0 0 0 0 1 1 1 1 1 1 1 1 1 1 1 1 1 1 1 1 1
0 0 0 0 0 0 0 0 0 0 0 0 0 0 0 0 0 0 0 0 0 0 0 0 0 0 1 1 1 1 1 1 1 1 1 1 1 1 1 1 1 1 1 1
0 0 0 0 0 0 0 0 0 0 0 0 0 0 0 0 0 0 0 0 0 0 0 0 0 0 1 1 1 1 1 1 1 1 1 1 1 1 1 1 1 1 1 1
0 0 0 0 0 0 0 0 0 0 0 0 0 0 0 0 0 0 0 0 0 0 0 0 1 1 1 1 1 1 2 2 2 1 1 1 1 1 1 1 1 1 1 1
0 0 0 0 0 0 0 0 0 0 0 0 0 0 0 0 0 0 0 0 0 0 0 0 1 1 1 1 1 1 2 2 2 1 1 1 1 1 1 1 1 1 1 1
0 0 0 0 0 0 0 0 0 0 0 0 0 0 0 0 0 0 0 0 0 0 0 1 1 1 1 1 1 2 2 2 2 1 1 1 1 1 1 1 1 1 1 1
0 0 0 0 0 0 0 0 0 0 0 0 0 0 0 0 0 0 0 0 0 0 0 1 1 1 1 1 1 1 2 2 2 1 1 1 1 1 1 1 1 1 1 1
0 0 0 0 0 0 0 0 0 0 0 0 0 0 0 0 0 0 0 0 0 0 1 1 1 1 1 1 1 1 1 1 1 1 1 1 1 1 1 1 1 1 1 1
0 0 0 0 0 0 0 0 0 0 0 0 0 0 0 0 0 0 0 0 0 0 1 0 0 0 1 1 1 1 1 1 1 1 1 1 1 1 1 1 1 1 1 1
0 0 0 0 0 0 0 0 0 0 0 0 0 0 0 0 0 0 0 0 0 0 0 0 0 0 1 1 1 1 1 1 1 1 1 1 1 1 1 1 1 1 1 1
0 0 0 0 0 0 0 0 0 0 0 0 0 0 0 0 0 0 0 0 0 0 0 0 0 0 1 1 1 1 1 1 1 1 1 1 1 1 1 1 1 1 1 1
0 0 0 0 0 0 0 0 0 0 0 0 0 0 0 0 0 0 0 0 0 0 1 1 1 1 1 1 1 1 1 1 1 1 1 1 1 1 1 1 2 2 1 1
0 0 0 0 0 0 0 0 0 0 0 0 0 0 0 0 0 0 0 0 1 1 1 1 1 1 1 1 1 1 1 1 1 1 1 1 1 2 2 1 2 2 2 1
0 0 0 0 0 0 0 0 0 0 0 0 0 0 0 0 0 0 1 1 1 1 1 1 1 1 2 2 2 2 2 2 2 2 2 2 2 2 2 1 2 2 2 2
0 0 0 0 0 0 0 0 0 0 0 0 0 0 0 0 0 1 1 1 1 1 1 1 1 1 1 2 2 2 2 2 2 2 2 2 2 2 2 2 2 2 2 2
0 0 0 0 0 0 0 0 0 0 0 0 0 0 0 0 1 1 1 1 1 1 1 1 1 1 1 1 2 2 2 2 2 2 2 2 2 2 2 2 2 2 2 2
0 0 0 0 0 0 0 0 0 0 0 0 0 0 0 0 1 1 1 1 1 1 1 1 1 1 1 1 1 2 2 2 2 2 2 2 2 2 2 2 2 2 2 2
0 0 0 0 0 0 0 0 0 0 0 0 0 0 0 0 1 1 1 1 1 1 1 1 1 1 1 1 1 2 2 2 2 2 2 2 2 2 2 2 2 2 2 2
0 0 0 0 0 0 0 0 0 0 0 0 0 0 0 0 1 1 1 1 1 1 1 1 1 1 1 1 2 2 2 2 2 2 2 2 2 2 2 2 2 2 2 2
0 0 0 0 0 0 0 0 0 0 0 0 0 0 1 1 1 1 1 1 1 1 1 1 1 1 1 2 2 2 2 2 2 2 2 2 2 2 2 2 2 2 1 1
0 0 0 0 0 0 0 0 0 1 0 0 0 0 1 1 1 1 1 1 1 1 1 1 1 1 1 2 2 2 1 1 1 1 1 2 2 1 1 2 2 1 1 1
0 0 0 0 0 0 0 0 1 1 0 0 0 0 1 1 1 1 1 1 1 1 1 1 1 1 1 1 1 1 1 1 1 1 1 1 1 1 1 1 1 1 1 1
0 0 0 0 0 0 0 0 0 0 0 0 0 0 1 1 1 1 1 1 1 1 1 1 1 1 1 1 1 1 1 1 1 1 1 1 1 1 1 1 1 1 1 1
0 0 0 0 0 0 0 0 0 0 0 0 0 0 1 1 1 1 1 1 1 1 1 1 1 1 1 1 1 1 1 1 1 1 1 1 1 1 1 1 0 0 0 0
0 0 0 0 0 0 0 0 0 0 0 0 0 0 1 1 1 1 1 1 1 1 1 1 1 1 1 1 1 1 1 1 1 1 1 1 1 1 0 0 0 0 0 0
Wind_Speed
9 8 6 6 5 7 8 5 3 1 1 0 3 6 7 6 7 9 9 9 9 9 9 9 8 8 8 7 6 5 4 3 2 2 2 2 1 1 1 1 2 1 0 1
10 10 10 8 7 9 9 5 3 3 1 1 2 4 6 5 5 6 9 9 9 9 9 9 8 8 8 7 6 5 5 4 3 2 2 1 1 1 1 1 2 1 1 0
12 8 7 8 8 8 9 7 4 5 3 2 2 3 6 6 5 5 7 8 9 10 10 9 8 7 8 8 7 5 5 4 3 3 2 1 1 0 0 1 1 1 1 1
11 10 10 10 9 8 7 7 6 6 5 4 5 2 4 6 5 5 5 5 8 9 10 10 9 8 8 8 8 6 6 4 3 3 2 2 2 1 1 1 1 2 1 1
11 11 11 10 9 8 9 7 8 9 7 6 6 4 3 4 6 6 5 6 6 8 9 10 11 9 8 9 9 7 6 5 4 3 2 1 1 1 1 1 1 2 2 1
14 13 12 10 9 9 10 9 9 9 6 7 8 5 4 5 8 8 8 7 6 8 7 8 9 9 8 8 8 8 7 5 4 3 2 2 1 1 1 1 1 1 1 1
14 14 13 11 11 10 11 9 6 6 4 6 6 4 3 3 4 7 9 8 8 7 7 7 8 8 7 7 7 7 8 6 5 4 3 2 1 1 1 1 1 1 1 1
12 11 11 11 10 10 10 10 8 9 6 5 4 3 2 5 4 5 8 8 8 8 7 6 8 7 6 7 7 7 7 6 5 4 3 3 2 2 1 2 2 1 1 0
9 9 8 9 10 11 11 10 11 11 10 6 4 4 3 4 3 5 7 7 8 7 7 7 7 7 6 6 6 7 7 5 4 4 4 3 3 2 1 0 1 1 1 1
10 10 10 9 10 11 11 10 8 7 7 9 4 2 2 4 4 5 6 6 8 7 8 7 6 6 5 5 6 6 6 6 4 3 3 4 4 2 1 1 1 0 1 1
11 11 11 10 10 9 9 11 9 7 7 9 7 1 4 6 4 5 7 8 8 8 8 7 6 6 5 5 5 5 5 5 5 4 3 2 3 3 2 2 1 0 1 1
8 9 10 12 10 10 11 11 10 8 6 8 9 2 3 4 4 4 6 6 6 5 7 7 6 6 5 3 4 4 3 3 4 4 3 3 2 2 3 2 1 1 0 1
5 7 9 9 9 9 10 10 10 10 8 7 8 2 3 3 4 6 5 4 5 5 5 6 6 5 4 3 2 3 3 3 2 2 3 2 2 2 2 2 1 1 1 1
6 9 10 11 9 9 10 11 11 10 8 8 7 3 3 4 4 4 3 3 5 5 5 6 5 5 4 3 2 2 3 2 3 2 3 2 2 1 1 1 1 1 1 1
7 10 12 14 15 14 12 11 11 11 10 10 8 4 1 4 5 4 4 4 5 5 5 5 5 4 4 3 2 2 2 2 2 2 2 2 1 1 1 1 1 1 1 1
7 9 12 14 16 15 14 12 11 11 11 11 8 4 1 4 5 5 4 3 4 5 5 4 4 4 3 2 1 1 1 2 2 2 1 1 1 1 1 1 1 0 1 1
7 8 11 13 14 15 14 11 10 9 9 9 7 4 1 3 3 4 3 1 2 3 4 3 2 3 2 2 1 1 0 1 2 2 1 1 1 1 1 1 0 1 1 1
7 6 7 12 13 16 9 8 9 8 8 8 6 2 1 1 3 5 5 4 2 3 3 2 2 2 1 1 1 0 0 1 1 1 1 0 1 1 1 1 1 1 1 1
6 6 8 10 12 12 9 7 7 6 5 6 6 4 2 2 1 4 4 4 4 3 3 2 1 1 2 2 1 1 1 1 1 1 1 1 1 1 1 1 1 1 1 2
7 6 9 11 13 11 6 7 8 6 3 6 7 6 3 2 2 2 4 4 3 3 2 2 1 1 2 2 2 1 1 1 1 1 0 1 1 1 1 1 1 1 2 2
8 8 11 12 13 7 6 8 7 5 3 7 7 7 5 3 3 4 5 3 2 2 2 2 2 2 3 3 2 2 2 2 2 2 2 2 1 1 1 0 1 1 2 2
7 8 8 8 11 6 8 6 4 4 5 7 7 6 6 5 4 4 5 4 2 2 2 2 2 3 3 2 2 2 2 2 2 2 2 1 1 2 1 1 1 2 2 3
5 4 4 3 3 3 7 6 5 4 4 5 6 6 4 3 2 2 3 2 2 1 1 1 2 2 2 2 2 1 2 2 2 1 1 1 1 1 1 1 2 2 2 2
3 3 4 4 2 1 4 6 7 7 5 5 6 6 6 4 3 2 1 1 1 1 0 0 0 1 1 1 1 1 1 2 1 1 1 1 1 1 1 1 1 2 2 2
5 4 5 7 6 5 4 4 6 7 6 5 5 6 7 5 4 3 1 1 1 0 0 0 0 0 0 1 1 1 1 1 2 2 2 3 2 1 0 1 1 1 1 1
6 5 5 6 5 5 4 5 7 7 7 6 6 5 5 5 5 4 3 1 1 1 1 0 0 1 0 0 0 1 1 1 2 2 2 3 2 1 1 1 1 2 1 0
Wind_Direction
255 256 257 257 264 274 276 285 320 267 125 152 122 131 133 149 164 151 151 154 154 152 149 148 151 146 141 138 137 140 147 146 150 164 175 178 179 182 188 161 137 140 151 123
252 249 256 258 259 267 283 299 299 288 107 245 136 124 131 160 175 157 155 158 155 151 144 145 150 149 147 143 146 151 157 158 172 168 176 190 170 184 171 123 121 135 127 323
244 254 260 267 268 279 290 300 301 304 305 285 218 146 159 166 167 150 156 157 155 155 154 153 157 156 154 149 153 156 154 158 167 161 176 182 146 210 115 124 126 148 153 163
246 252 259 265 266 278 286 310 317 307 301 272 256 210 187 170 162 159 158 161 159 159 158 160 163 162 160 156 156 148 144 147 147 161 179 167 160 183 194 156 158 157 156 161
251 248 250 258 265 276 290 303 302 297 291 278 273 247 192 180 177 185 168 162 158 153 156 159 163 159 161 158 154 150 143 144 147 158 167 188 188 209 204 164 166 166 167 182
263 261 257 258 262 263 271 274 276 272 272 276 269 261 188 182 181 178 164 160 156 143 147 147 144 147 155 148 145 144 142 146 153 165 169 176 205 229 238 202 192 208 184 170
251 251 251 251 257 256 262 268 274 272 261 267 271 274 138 152 167 158 153 154 145 136 131 131 127 135 144 142 142 137 139 144 155 167 174 172 195 223 243 254 241 247 223 149
253 249 244 242 247 264 265 269 275 287 277 276 292 289 101 132 143 127 132 139 139 135 130 132 130 132 137 136 133 134 139 148 161 166 170 165 178 220 230 242 274 277 304 21
259 262 255 254 253 254 261 270 283 285 284 275 230 188 145 120 157 134 125 133 133 134 130 131 130 132 135 138 137 139 140 143 154 164 166 168 181 216 258 275 250 312 343 359
261 276 274 257 245 247 257 273 280 283 293 286 276 190 179 180 173 130 131 142 131 134 131 132 134 129 131 136 139 142 142 147 154 160 181 181 188 190 207 252 260 256 316 338
265 268 270 265 250 263 259 264 272 285 293 295 293 291 153 168 162 161 148 140 132 143 144 143 134 126 128 131 133 130 141 150 157 170 184 198 182 187 195 209 248 291 287 301
268 270 272 270 269 260 264 265 266 270 273 276 283 284 99 134 142 127 119 122 130 147 144 139 133 131 128 127 133 136 148 153 162 167 174 196 184 187 193 203 208 220 226 258
308 282 275 269 267 256 260 269 276 276 270 267 273 252 122 95 80 83 87 120 130 137 138 136 131 125 123 128 118 139 145 146 148 154 173 179 181 190 197 188 174 182 209 254
290 271 272 274 277 274 261 261 267 273 272 272 270 256 186 127 94 91 107 127 127 127 119 119 116 115 118 117 113 127 141 149 151 158 175 172 182 193 195 195 180 182 209 260
266 271 274 273 275 276 277 266 262 264 271 279 285 281 206 140 139 145 145 130 123 122 112 111 115 112 114 121 122 115 127 129 140 155 170 156 176 194 208 210 199 182 244 270
271 282 285 277 272 273 273 272 268 266 267 268 275 290 18 109 113 116 108 118 133 122 110 104 110 109 111 107 103 123 128 138 139 156 161 150 175 184 213 236 195 183 254 274
272 283 283 279 281 278 269 268 265 267 272 277 279 305 25 65 88 96 95 80 126 127 119 106 109 119 126 126 110 78 63 144 163 166 166 157 169 203 237 253 236 235 256 260
262 282 279 276 278 270 271 287 282 277 282 283 284 291 318 219 137 129 136 151 175 129 120 107 108 125 145 136 123 123 216 160 158 167 157 183 198 221 233 227 241 244 252 258
261 262 269 272 270 265 266 284 294 288 295 317 316 330 3 6 107 111 103 112 114 105 102 92 76 106 86 70 59 342 271 221 175 211 213 224 238 247 249 231 238 255 260 260
233 247 261 268 274 274 301 318 320 290 262 355 347 346 2 332 262 119 94 92 101 93 92 98 105 77 79 71 62 10 326 336 352 324 320 309 290 264 268 266 271 277 267 267
230 234 246 261 268 273 312 318 316 287 352 359 357 360 354 6 11 91 100 98 122 132 125 118 104 84 71 71 67 30 14 9 8 8 7 354 329 287 258 267 288 288 282 269
245 244 246 257 262 269 342 330 8 21 3 351 357 355 1 13 45 86 101 104 112 97 95 97 98 92 83 76 66 28 14 2 355 0 358 342 328 298 315 322 279 275 275 271
260 272 280 284 288 1 358 15 16 360 345 341 337 340 342 326 8 51 92 109 122 113 101 101 97 93 93 82 64 15 3 353 347 354 331 310 309 322 323 297 290 283 266 271
269 318 289 281 244 282 342 356 345 333 331 332 333 334 328 336 354 8 28 84 120 136 127 141 118 88 67 62 51 35 7 346 331 324 310 279 258 239 230 273 283 287 299 303
298 297 283 274 280 291 299 317 318 318 325 330 335 336 336 344 335 341 345 13 348 23 148 249 182 116 59 53 25 18 3 337 306 291 282 281 274 265 277 297 317 288 312 294
286 281 269 280 309 297 302 318 314 318 326 327 325 327 332 328 320 319 318 345 351 3 358 353 188 238 229 125 55 0 329 300 287 281 277 280 280 262 242 233 310 10 282 261